Weather Roundup
Issued by NWS Chicago, IL

Home | Current Version | Previous Version | Graphics & Text | Print | Product List | Glossary On
Versions: 1 2 3 4 5 6 7 8 9 10 11 12 13 14 15 16 17 18 19 20 21 22 23 24 25 26 27 28 29 30 31 32 33 34 35 36 37 38 39 40 41 42 43 44 45 46 47 48 49 50
000
NZUS59 KLOT 280610
HRRLOT

CHICAGO AREA WEATHER ROUNDUP
NATIONAL WEATHER SERVICE CHICAGO/ROMEOVILLE IL
1200 AM CST FRI NOV 28 2014

NOTE: "FAIR" INDICATES FEW OR NO CLOUDS BELOW 12,000 FEET WITH NO
SIGNIFICANT WEATHER AND/OR OBSTRUCTIONS TO VISIBILITY.

* THESE STATIONS ARE NOT UNDER NWS QUALITY CONTROL. THEY ALSO MAY NOT
  REPORT WEATHER SUCH AS PRECIPITATION OR FOG.

ILZ005-006-012>014-019>023-280700-
NORTHEAST ILLINOIS

CITY           SKY/WX    TMP DP  RH WIND       PRES   REMARKS
OHARE          PTCLDY    18  11  74 CALM      30.36F
6HR MIN TEMP:  15; 6HR MAX TEMP:  20;

MIDWAY         MOCLDY    21   9  59 CALM      30.38F
6HR MIN TEMP:  19; 6HR MAX TEMP:  25; 6HR PCP: TRACE;

AURORA         PTCLDY    13   7  77 CALM      30.37F
6HR MIN TEMP:   9; 6HR MAX TEMP:  19;

LANSING*       PTCLDY    18  11  74 CALM      30.39S
JOLIET*        CLEAR     15  10  81 CALM      30.38F
WAUKEGAN       MOCLDY    13  10  88 CALM      30.36F
6HR MIN TEMP:   8; 6HR MAX TEMP:  18; 6HR PCP: TRACE;

DUPAGE AIRPORT PTCLDY    13  10  88 CALM      30.36F
6HR MIN TEMP:  12; 6HR MAX TEMP:  20; 6HR PCP: TRACE;

WHEELING       MOCLDY    17  11  77 CALM      30.39F
6HR MIN TEMP:  14; 6HR MAX TEMP:  18;

KANKAKEE*      CLEAR    N/A N/A N/A W3        30.39F
MORRIS*        CLEAR     15  13  90 CALM      30.36F
LEWIS AIRPORT* CLEAR     14  10  85 W3        30.37F
NORTHERLY IS     N/A     20  10  65 W2          N/A
$$

WIZ051-052-058>065-066-070>072-280700-
SOUTHEAST WISCONSIN

CITY           SKY/WX    TMP DP  RH WIND       PRES   REMARKS
MILWAUKEE      MOCLDY    14   7  73 W5        30.36F WCI   6
6HR MIN TEMP:  14; 6HR MAX TEMP:  18; 6HR PCP: TRACE;

KENOSHA*       MOCLDY    12   8  84 CALM      30.36F
RACINE*        MOCLDY    13   7  77 CALM      30.38F
BURLINGTON     MOCLDY     9   7  90 CALM      30.35F
WAUKESHA       PTCLDY    10   9  92 CALM      30.35F
WEST BEND      PTCLDY     9   5  85 CALM      30.35S
$$

INZ001>003-010>013-019-020-280700-
NORTHWEST INDIANA

CITY           SKY/WX    TMP DP  RH WIND       PRES   REMARKS
GARY*          PTCLDY    20  11  67 CALM      30.39F
6HR MIN TEMP:  20; 6HR MAX TEMP:  26;

MICHIGAN CITY* NOT AVBL
RENSSELAER*    NOT AVBL
VALPARAISO     PTCLDY    20  13  74 W3        30.37F
$$

LMZ740>746-280700-
SOUTHERN LAKE MICHIGAN

STATION/POSITION TIME  SKY/WX   TEMP WIND        PRES    VSBY
                                AIR  DIR/SP/G
                 (UTC)          (F)  (DEG/KT/KT) (MB)    (MI)
HARRISON CRIB    0600            20  280/  4/  6   N/A
BURNHAM HARBOR   0600            20  280/  3/  5   N/A
CALUMET HARBOR   0600            20  320/  1/  2 1027.6R
BURNS HARBOR     NOT AVBL
MICHIGAN CITY    0600            23  200/ 10/ 13   N/A
$$

ABBREVIATIONS USED IN REMARKS
   TC - TEMPERATURE IN CELSIUS
  WCI - WIND CHILL INDEX
   HX - HEAT INDEX
  VSB - VISIBILITY
$$



USA.gov is the U.S. government's official web portal to all federal, state and local government web resources and services.